CW8721 Weather Reports


Display with metric or nautical units.
time (UTC)temp
F
wind
direction
speed
MPH
gust
MPH
rain 1hr
in
rain 24hr
in
rain mn
in
humidity
%
barometer
mb
20240301010021 57 179 5.0 17.0 0.00 0.00 0.00 25 1003.7
20240301005520 58 133 6.0 17.0 0.00 0.00 0.00 24 1003.6
20240301005021 58 146 9.0 21.0 0.00 0.00 0.00 24 1003.6
20240301004524 58 169 9.0 20.0 0.00 0.00 0.00 24 1003.5
20240301004025 59 170 10.0 20.0 0.00 0.00 0.00 23 1003.4
20240301003519 59 189 7.0 22.0 0.00 0.00 0.00 24 1003.5
20240301003023 59 167 11.0 24.0 0.00 0.00 0.00 23 1003.4
20240301002518 59 173 7.0 16.0 0.00 0.00 0.00 24 1003.6
20240301002018 59 162 6.0 20.0 0.00 0.00 0.00 24 1003.7
20240301001518 59 184 12.0 20.0 0.00 0.00 0.00 24 1003.7
20240301001017 59 173 8.0 20.0 0.00 0.00 0.00 24 1003.7
20240301000518 59 175 7.0 21.0 0.00 0.00 0.00 24 1003.7
20240301000016 59 166 9.0 21.0 0.00 0.00 0.00 23 1004.0
20240229235515 59 147 7.0 18.0 0.00 0.00 0.00 24 1004.0
20240229235016 59 153 9.0 18.0 0.00 0.00 0.00 24 1003.8
20240229234533 59 182 8.0 19.0 0.00 0.00 0.00 24 1004.1
20240229234014 59 138 9.0 19.0 0.00 0.00 0.00 24 1004.3
20240229233513 59 172 11.0 17.0 0.00 0.00 0.00 24 1004.3
20240229233024 58 181 8.0 15.0 0.00 0.00 0.00 25 1004.4
20240229232512 58 179 8.0 14.0 0.00 0.00 0.00 25 1004.4
20240229232011 58 176 6.0 13.0 0.00 0.00 0.00 26 1004.7
20240229231511 58 163 7.0 16.0 0.00 0.00 0.00 25 1004.8
20240229231010 58 198 6.0 12.0 0.00 0.00 0.00 26 1004.9
20240229230509 58 182 5.0 17.0 0.00 0.00 0.00 26 1004.9
20240229230008 58 155 10.0 17.0 0.00 0.00 0.00 25 1005.0
20240229225508 58 180 5.0 16.0 0.00 0.00 0.00 25 1005.0
20240229225008 59 142 9.0 16.0 0.00 0.00 0.00 24 1004.9
20240229224519 58 167 6.0 14.0 0.00 0.00 0.00 25 1005.2
20240229224007 58 175 10.0 16.0 0.00 0.00 0.00 24 1005.2
20240229223508 58 165 9.0 19.0 0.00 0.00 0.00 25 1005.4
20240229223006 58 135 6.0 19.0 0.00 0.00 0.00 25 1005.5
20240229222505 58 106 7.0 15.0 0.00 0.00 0.00 25 1005.5
20240229222005 58 147 6.0 18.0 0.00 0.00 0.00 25 1005.6
20240229221506 58 160 9.0 21.0 0.00 0.00 0.00 24 1005.8
20240229221003 58 137 8.0 21.0 0.00 0.00 0.00 25 1005.7
20240229220502 58 153 8.0 19.0 0.00 0.00 0.00 24 1005.8
20240229220001 59 168 7.0 19.0 0.00 0.00 0.00 25 1005.9
20240229215600 59 148 6.0 18.0 0.00 0.00 0.00 25 1006.0
20240229215100 59 162 9.0 14.0 0.00 0.00 0.00 25 1006.1
20240229214602 58 130 7.0 18.0 0.00 0.00 0.00 25 1006.2
20240229214058 58 163 7.0 19.0 0.00 0.00 0.00 25 1006.2
20240229213602 58 150 10.0 19.0 0.00 0.00 0.00 25 1006.3
20240229213103 58 180 10.0 20.0 0.00 0.00 0.00 25 1006.4
20240229212555 59 167 7.0 17.0 0.00 0.00 0.00 25 1006.6
20240229212055 59 178 9.0 17.0 0.00 0.00 0.00 26 1006.7
20240229211555 58 208 10.0 18.0 0.00 0.00 0.00 26 1006.8
20240229211053 58 169 10.0 19.0 0.00 0.00 0.00 26 1006.9
20240229210554 58 153 12.0 19.0 0.00 0.00 0.00 24 1007.1
20240229210101 58 154 10.0 21.0 0.00 0.00 0.00 25 1007.1
20240229205551 58 161 12.0 22.0 0.00 0.00 0.00 25 1007.2
20240229205049 57 194 11.0 24.0 0.00 0.00 0.00 26 1007.2
20240229204549 57 161 11.0 23.0 0.00 0.00 0.00 26 1007.4
20240229204047 57 179 12.0 25.0 0.00 0.00 0.00 26 1007.4
20240229203547 57 188 9.0 19.0 0.00 0.00 0.00 26 1007.5
20240229203046 57 177 12.0 21.0 0.00 0.00 0.00 26 1007.7
20240229202544 56 149 8.0 22.0 0.00 0.00 0.00 27 1008.0
20240229202042 57 186 11.0 22.0 0.00 0.00 0.00 28 1008.0
20240229201543 56 146 10.0 17.0 0.00 0.00 0.00 27 1008.1
20240229201044 56 143 8.0 22.0 0.00 0.00 0.00 28 1008.2
20240229200540 56 173 11.0 22.0 0.00 0.00 0.00 27 1008.3
20240229200040 56 170 11.0 20.0 0.00 0.00 0.00 28 1008.4
20240229195539 55 178 12.0 20.0 0.00 0.00 0.00 27 1008.4
20240229195041 55 167 10.0 20.0 0.00 0.00 0.00 27 1008.5
20240229194538 55 166 9.0 20.0 0.00 0.00 0.00 27 1008.5
20240229194035 54 157 8.0 19.0 0.00 0.00 0.00 29 1008.8
20240229193536 54 163 10.0 19.0 0.00 0.00 0.00 27 1008.9
20240229193039 54 168 9.0 17.0 0.00 0.00 0.00 29 1009.0
20240229192535 54 172 6.0 23.0 0.00 0.00 0.00 28 1009.2
20240229192033 54 169 11.0 23.0 0.00 0.00 0.00 27 1009.2
20240229191548 54 167 8.0 18.0 0.00 0.00 0.00 29 1009.2
20240229191032 54 175 12.0 21.0 0.00 0.00 0.00 28 1009.4
20240229190530 54 154 11.0 21.0 0.00 0.00 0.00 28 1009.4
20240229190028 53 169 9.0 25.0 0.00 0.00 0.00 29 1009.7
20240229185532 52 188 12.0 25.0 0.00 0.00 0.00 28 1009.6
20240229185027 52 173 13.0 23.0 0.00 0.00 0.00 29 1009.6
20240229184527 52 166 12.0 23.0 0.00 0.00 0.00 28 1009.7
20240229184028 52 176 13.0 29.0 0.00 0.00 0.00 29 1009.6
20240229183529 52 166 14.0 29.0 0.00 0.00 0.00 28 1009.4
20240229183037 52 132 12.0 25.0 0.00 0.00 0.00 28 1009.5
20240229182528 52 186 11.0 27.0 0.00 0.00 0.00 28 1009.4
20240229182024 52 127 11.0 23.0 0.00 0.00 0.00 28 1009.4
20240229181526 52 156 12.0 24.0 0.00 0.00 0.00 28 1009.4
20240229181023 52 169 10.0 24.0 0.00 0.00 0.00 28 1009.7
20240229180523 52 174 12.0 21.0 0.00 0.00 0.00 28 1009.7
20240229180022 52 157 12.0 21.0 0.00 0.00 0.00 28 1009.6
20240229175521 51 190 11.0 17.0 0.00 0.00 0.00 28 1009.5
20240229175023 51 163 10.0 21.0 0.00 0.00 0.00 29 1009.6
20240229174520 51 197 10.0 21.0 0.00 0.00 0.00 29 1009.6
20240229174022 51 173 10.0 18.0 0.00 0.00 0.00 30 1009.7
20240229173520 51 170 8.0 16.0 0.00 0.00 0.00 32 1009.9
20240229173026 50 138 7.0 18.0 0.00 0.00 0.00 32 1009.9
20240229172516 49 141 8.0 18.0 0.00 0.00 0.00 33 1009.9
20240229172014 49 168 8.0 23.0 0.00 0.00 0.00 33 1010.0
20240229171514 49 138 12.0 23.0 0.00 0.00 0.00 33 1009.9
20240229171013 49 188 11.0 23.0 0.00 0.00 0.00 32 1010.0
20240229170512 48 161 11.0 23.0 0.00 0.00 0.00 32 1010.0
20240229170012 48 360 12.0 25.0 0.00 0.00 0.00 33 1010.2
20240229165509 48 360 11.0 25.0 0.00 0.00 0.00 33 1010.3
20240229165008 47 360 10.0 19.0 0.00 0.00 0.00 34 1010.3
20240229164514 46 131 11.0 24.0 0.00 0.00 0.00 36 1010.4
20240229164009 45 360 11.0 20.0 0.00 0.00 0.00 37 1010.9
20240229163503 44 360 10.0 20.0 0.00 0.00 0.00 39 1010.4
20240229163003 44 360 9.0 16.0 0.00 0.00 0.00 40 1010.7
20240229162502 44 360 9.0 18.0 0.00 0.00 0.00 41 1010.7
20240229162001 43 146 9.0 20.0 0.00 0.00 0.00 43 1010.8
20240229161638 43 178 10.0 20.0 0.00 0.00 0.00 42 1010.8
20240229161059 43 360 9.0 16.0 0.00 0.00 0.00 42 1011.0
20240229160558 43 360 5.0 15.0 0.00 0.00 0.00 42 1011.2
20240229160106 43 360 3.0 9.0 0.00 0.00 0.00 42 1011.5
20240229155554 42 360 2.0 5.0 0.00 0.00 0.00 45 1011.5
20240229155053 42 360 1.0 6.0 0.00 0.00 0.00 48 1011.6
20240229154552 41 360 2.0 6.0 0.00 0.00 0.00 47 1011.7
20240229154051 41 360 0.0 3.0 0.00 0.00 0.00 48 1011.8
20240229153549 40 360 0.0 4.0 0.00 0.00 0.00 48 1011.7
20240229153051 40 304 1.0 4.0 0.00 0.00 0.00 52 1011.7
20240229152548 39 70 1.0 4.0 0.00 0.00 0.00 57 1011.7
20240229152047 38 360 0.0 4.0 0.00 0.00 0.00 58 1011.9
20240229151544 37 360 1.0 4.0 0.00 0.00 0.00 63 1011.8
20240229151043 37 360 1.0 4.0 0.00 0.00 0.00 66 1012.0
20240229150541 36 360 2.0 8.0 0.00 0.00 0.00 67 1011.8
20240229150041 36 360 3.0 8.0 0.00 0.00 0.00 69 1011.8
20240229145538 35 360 1.0 3.0 0.00 0.00 0.00 70 1011.8
20240229145036 35 360 1.0 3.0 0.00 0.00 0.00 70 1011.7
20240229144536 34 360 1.0 4.0 0.00 0.00 0.00 70 1011.9
20240229144035 34 360 1.0 4.0 0.00 0.00 0.00 70 1012.0
20240229143534 34 360 1.0 3.0 0.00 0.00 0.00 69 1011.9
20240229143033 34 360 1.0 3.0 0.00 0.00 0.00 69 1011.8
20240229142533 34 360 0.0 2.0 0.00 0.00 0.00 68 1012.0
20240229142031 34 360 0.0 2.0 0.00 0.00 0.00 68 1012.1
20240229141534 34 360 0.0 6.0 0.00 0.00 0.00 68 1012.2
20240229141030 34 360 1.0 10.0 0.00 0.00 0.00 67 1012.2
20240229140530 35 360 5.0 10.0 0.00 0.00 0.00 66 1012.2
20240229140028 35 360 2.0 4.0 0.00 0.00 0.00 66 1012.0
20240229135528 34 360 1.0 5.0 0.00 0.00 0.00 66 1012.2
20240229135027 34 360 0.0 5.0 0.00 0.00 0.00 68 1012.2
20240229134530 34 360 0.0 1.0 0.00 0.00 0.00 68 1012.2
20240229134026 34 360 0.0 3.0 0.00 0.00 0.00 68 1012.2
20240229133525 34 360 0.0 4.0 0.00 0.00 0.00 68 1012.2
20240229133025 34 360 2.0 4.0 0.00 0.00 0.00 68 1012.2
20240229132524 34 360 1.0 4.0 0.00 0.00 0.00 68 1012.4
20240229132024 34 360 1.0 5.0 0.00 0.00 0.00 68 1012.3
20240229131524 34 360 1.0 5.0 0.00 0.00 0.00 68 1012.3
20240229131021 34 360 2.0 5.0 0.00 0.00 0.00 68 1012.4
20240229130519 34 360 3.0 5.0 0.00 0.00 0.00 68 1012.3
20240229130032 34 360 0.0 3.0 0.00 0.00 0.00 67 1012.4
20240229125516 34 360 0.0 3.0 0.00 0.00 0.00 67 1012.4
20240229125015 33 360 0.0 3.0 0.00 0.00 0.00 68 1012.5
20240229124515 33 360 0.0 6.0 0.00 0.00 0.00 68 1012.5
20240229124014 33 360 3.0 6.0 0.00 0.00 0.00 68 1012.4
20240229123518 33 360 1.0 4.0 0.00 0.00 0.00 67 1012.5
20240229123018 33 360 1.0 6.0 0.00 0.00 0.00 66 1012.4
20240229122514 33 360 4.0 6.0 0.00 0.00 0.00 66 1012.5
20240229122013 33 360 0.0 3.0 0.00 0.00 0.00 66 1012.5
20240229121513 33 360 0.0 3.0 0.00 0.00 0.00 67 1012.5
20240229121012 33 360 0.0 0.0 0.00 0.00 0.00 67 1012.5
20240229120514 33 360 0.0 1.0 0.00 0.00 0.00 67 1012.5
20240229120010 32 360 0.0 2.0 0.00 0.00 0.00 67 1012.6
20240229115509 32 246 0.0 3.0 0.00 0.00 0.00 67 1012.8
20240229115008 32 246 1.0 3.0 0.00 0.00 0.00 67 1012.8
20240229114508 32 245 0.0 3.0 0.00 0.00 0.00 67 1012.8
20240229114011 32 245 0.0 2.0 0.00 0.00 0.00 67 1012.9
20240229113508 32 245 1.0 3.0 0.00 0.00 0.00 67 1013.0
20240229113008 31 244 0.0 3.0 0.00 0.00 0.00 68 1013.0
20240229112507 31 244 0.0 2.0 0.00 0.00 0.00 68 1013.0
20240229112006 31 245 0.0 4.0 0.00 0.00 0.00 67 1013.2
20240229111506 31 245 0.0 4.0 0.00 0.00 0.00 67 1013.0
20240229111006 31 243 1.0 4.0 0.00 0.00 0.00 66 1013.1
20240229110506 31 241 0.0 1.0 0.00 0.00 0.00 65 1013.1
20240229110006 32 240 0.0 3.0 0.00 0.00 0.00 65 1013.2
20240229105504 32 360 0.0 4.0 0.00 0.00 0.00 64 1013.3
20240229105004 32 360 1.0 3.0 0.00 0.00 0.00 64 1013.3
20240229104504 32 360 0.0 2.0 0.00 0.00 0.00 64 1013.3
20240229104005 32 360 0.0 3.0 0.00 0.00 0.00 64 1013.3
20240229103504 32 360 0.0 4.0 0.00 0.00 0.00 64 1013.4
20240229103003 32 360 1.0 4.0 0.00 0.00 0.00 65 1013.4
20240229102502 32 360 2.0 3.0 0.00 0.00 0.00 64 1013.5
20240229102003 32 360 2.0 4.0 0.00 0.00 0.00 65 1013.6
20240229101600 32 360 2.0 4.0 0.00 0.00 0.00 66 1013.7
20240229101059 32 360 2.0 4.0 0.00 0.00 0.00 67 1013.6
20240229100558 32 360 2.0 4.0 0.00 0.00 0.00 68 1013.7
20240229100058 31 360 2.0 4.0 0.00 0.00 0.00 69 1013.9
20240229095556 31 82 1.0 3.0 0.00 0.00 0.00 70 1014.0
20240229095056 31 82 1.0 3.0 0.00 0.00 0.00 70 1014.1
20240229094558 30 101 1.0 3.0 0.00 0.00 0.00 70 1014.3
20240229094057 30 101 1.0 3.0 0.00 0.00 0.00 70 1014.3
20240229093554 30 101 1.0 3.0 0.00 0.00 0.00 70 1014.4
20240229093054 30 100 1.0 3.0 0.00 0.00 0.00 70 1014.5
20240229092552 30 111 1.0 2.0 0.00 0.00 0.00 70 1014.6
20240229092052 30 111 1.0 2.0 0.00 0.00 0.00 69 1014.8
20240229091552 31 111 0.0 1.0 0.00 0.00 0.00 69 1014.8
20240229091051 31 111 0.0 3.0 0.00 0.00 0.00 69 1014.9
20240229090551 31 111 0.0 3.0 0.00 0.00 0.00 69 1015.0
20240229090052 31 111 0.0 6.0 0.00 0.00 0.00 69 1015.0
20240229085549 31 111 1.0 6.0 0.00 0.00 0.00 69 1015.1
20240229085055 31 252 0.0 2.0 0.00 0.00 0.00 68 1015.3
20240229084618 31 252 0.0 3.0 0.00 0.00 0.00 68 1015.4
20240229084048 32 252 1.0 3.0 0.00 0.00 0.00 68 1015.4
20240229083550 32 252 0.0 4.0 0.00 0.00 0.00 68 1015.5
20240229083055 32 252 2.0 4.0 0.00 0.00 0.00 68 1015.6
20240229082546 31 246 0.0 4.0 0.00 0.00 0.00 68 1015.5
20240229082047 31 246 1.0 6.0 0.00 0.00 0.00 69 1015.5
20240229081545 31 290 1.0 4.0 0.00 0.00 0.00 68 1015.6
20240229081045 31 85 1.0 4.0 0.00 0.00 0.00 68 1015.7
20240229080545 31 126 1.0 4.0 0.00 0.00 0.00 69 1015.8
20240229080100 30 141 1.0 4.0 0.00 0.00 0.00 69 1015.7
20240229075540 30 168 1.0 2.0 0.00 0.00 0.00 69 1015.9
20240229075040 30 186 0.0 0.0 0.00 0.00 0.00 70 1015.8
20240229074556 30 187 0.0 0.0 0.00 0.00 0.00 70 1015.9
20240229074037 31 187 0.0 0.0 0.00 0.00 0.00 69 1015.9
20240229073537 31 188 0.0 0.0 0.00 0.00 0.00 69 1015.9
20240229073036 31 188 0.0 0.0 0.00 0.00 0.00 69 1016.0
20240229072535 31 188 0.0 0.0 0.00 0.00 0.00 69 1016.1
20240229072035 31 188 0.0 0.0 0.00 0.00 0.00 70 1016.2
20240229071537 31 188 0.0 0.0 0.00 0.00 0.00 69 1016.2
20240229071035 31 188 0.0 0.0 0.00 0.00 0.00 69 1016.2
20240229070535 31 188 0.0 0.0 0.00 0.00 0.00 70 1016.3
20240229070034 31 188 0.0 0.0 0.00 0.00 0.00 69 1016.4
20240229065531 31 188 0.0 0.0 0.00 0.00 0.00 69 1016.4
20240229065031 32 188 0.0 0.0 0.00 0.00 0.00 69 1016.5
20240229064531 32 188 0.0 0.0 0.00 0.00 0.00 68 1016.6
20240229064032 32 188 0.0 0.0 0.00 0.00 0.00 68 1016.6
20240229063530 32 188 0.0 0.0 0.00 0.00 0.00 68 1016.6
20240229063029 32 188 0.0 0.0 0.00 0.00 0.00 68 1016.7
20240229062529 32 188 0.0 0.0 0.00 0.00 0.00 67 1016.8
20240229062029 32 187 0.0 0.0 0.00 0.00 0.00 67 1016.8
20240229061543 32 187 0.0 0.0 0.00 0.00 0.00 66 1016.8
20240229061028 32 187 0.0 0.0 0.00 0.00 0.00 65 1016.8
20240229060528 33 187 0.0 0.0 0.00 0.00 0.00 65 1016.8
20240229060028 33 187 0.0 0.0 0.00 0.00 0.00 64 1016.8
20240229055527 33 187 0.0 0.0 0.00 0.00 0.00 64 1016.9
20240229055027 34 187 0.0 0.0 0.00 0.00 0.00 64 1016.9
20240229054529 34 148 0.0 0.0 0.00 0.00 0.00 63 1016.9
20240229054027 34 146 0.0 0.0 0.00 0.00 0.00 63 1016.8
20240229053527 34 146 0.0 0.0 0.00 0.00 0.00 63 1016.9
20240229053037 34 146 0.0 0.0 0.00 0.00 0.00 63 1016.9
20240229052527 34 144 0.0 0.0 0.00 0.00 0.00 62 1016.9
20240229052026 34 145 0.0 0.0 0.00 0.00 0.00 62 1016.9
20240229051526 35 145 0.0 2.0 0.00 0.00 0.00 61 1016.9
20240229051029 35 145 0.0 3.0 0.00 0.00 0.00 61 1016.9
20240229050526 35 144 1.0 3.0 0.00 0.00 0.00 62 1017.0
20240229050033 35 144 1.0 3.0 0.00 0.00 0.00 63 1017.0
20240229045525 34 169 1.0 3.0 0.00 0.00 0.00 65 1017.1
20240229045024 34 207 0.0 2.0 0.00 0.00 0.00 66 1017.1
20240229044525 33 212 0.0 0.0 0.00 0.00 0.00 67 1017.1
20240229044024 33 213 0.0 0.0 0.00 0.00 0.00 67 1017.1
20240229043526 33 213 0.0 0.0 0.00 0.00 0.00 66 1016.9
20240229043024 33 213 0.0 0.0 0.00 0.00 0.00 65 1016.9
20240229042523 34 213 0.0 0.0 0.00 0.00 0.00 65 1017.0
20240229042024 34 213 0.0 0.0 0.00 0.00 0.00 65 1017.0
20240229041525 34 213 0.0 0.0 0.00 0.00 0.00 64 1017.0
20240229041023 35 213 0.0 0.0 0.00 0.00 0.00 64 1017.0
20240229040523 35 213 0.0 0.0 0.00 0.00 0.00 64 1016.9
20240229040023 35 213 0.0 0.0 0.00 0.00 0.00 65 1016.8
20240229035521 35 213 0.0 0.0 0.00 0.00 0.00 65 1017.1
20240229035021 34 213 0.0 0.0 0.00 0.00 0.00 64 1017.1
20240229034529 35 213 0.0 0.0 0.00 0.00 0.00 63 1017.0
20240229034024 36 213 0.0 0.0 0.00 0.00 0.00 62 1017.0
20240229033521 36 213 0.0 0.0 0.00 0.00 0.00 62 1017.0
20240229033029 35 213 0.0 0.0 0.00 0.00 0.00 63 1017.1
20240229032524 35 213 0.0 0.0 0.00 0.00 0.00 62 1017.1
20240229032019 35 213 0.0 0.0 0.00 0.00 0.00 62 1017.1
20240229031525 36 213 0.0 0.0 0.00 0.00 0.00 61 1017.2
20240229031018 36 213 0.0 1.0 0.00 0.00 0.00 59 1017.2
20240229030519 37 213 0.0 3.0 0.00 0.00 0.00 60 1017.3
20240229030019 37 213 1.0 3.0 0.00 0.00 0.00 59 1017.2
20240229025518 37 222 1.0 4.0 0.00 0.00 0.00 58 1017.2
20240229025017 37 222 1.0 4.0 0.00 0.00 0.00 57 1017.3
20240229024518 37 247 2.0 5.0 0.00 0.00 0.00 57 1017.3
20240229024017 38 247 3.0 5.0 0.00 0.00 0.00 56 1017.3
20240229023518 38 238 1.0 4.0 0.00 0.00 0.00 55 1017.3
20240229023016 38 239 2.0 4.0 0.00 0.00 0.00 55 1017.4
20240229022516 38 242 1.0 4.0 0.00 0.00 0.00 55 1017.4
20240229022015 39 244 2.0 4.0 0.00 0.00 0.00 55 1017.5
20240229021517 39 226 1.0 3.0 0.00 0.00 0.00 54 1017.5
20240229021015 40 226 1.0 3.0 0.00 0.00 0.00 53 1017.6
20240229020519 40 226 1.0 3.0 0.00 0.00 0.00 53 1017.6
20240229020022 40 234 1.0 3.0 0.00 0.00 0.00 52 1017.6
20240229015513 40 234 2.0 3.0 0.00 0.00 0.00 51 1017.6
20240229015014 41 252 2.0 3.0 0.00 0.00 0.00 51 1017.7
20240229014513 41 268 1.0 4.0 0.00 0.00 0.00 50 1017.6
20240229014013 41 269 1.0 6.0 0.00 0.00 0.00 49 1017.6
20240229013512 42 260 2.0 6.0 0.00 0.00 0.00 48 1017.7
20240229013017 42 257 3.0 4.0 0.00 0.00 0.00 48 1017.7
20240229012512 42 360 2.0 4.0 0.00 0.00 0.00 47 1017.7
20240229012011 42 360 2.0 4.0 0.00 0.00 0.00 48 1017.9
20240229011524 42 360 2.0 5.0 0.00 0.00 0.00 47 1017.9
20240229011010 42 360 3.0 5.0 0.00 0.00 0.00 45 1017.8
20240229010511 43 360 1.0 4.0 0.00 0.00 0.00 43 1017.8